Zanesville, OH

10:21 PM EST on December 12, 2017 (GMT -0500)
Zanesville Municipal

Weather History for KZZV - September, 2013

Change the Weather History Date:

Tuesday, September 17, 2013

  Actual Average Record
Temperature  
Mean Temperature 60 °F 64 °F  
Max Temperature 72 °F 76 °F 97 °F (1939)
Min Temperature 48 °F 53 °F 33 °F (1959)
Degree Days  
Heating Degree Days 5 3  
Month to date heating degree days 36 29  
Since 1 July heating degree days 45 40  
Cooling Degree Days 0 2  
Month to date cooling degree days 78 61  
Year to date cooling degree days 811 738  
Growing Degree Days 10 (Base 50)    
Moisture  
Dew Point 49 °F    
Average Humidity 70    
Maximum Humidity 93    
Minimum Humidity 47    
Precipitation  
Precipitation 0.00 in 0.10 in 2.23 in (2004)
Month to date precipitation 0.32 1.70  
Year to date precipitation 28.33 28.22  
Sea Level Pressure  
Sea Level Pressure 30.33 in    
Wind  
Wind Speed 2 mph (ENE)    
Max Wind Speed 8 mph    
Max Gust Speed 12 mph    
Visibility 7 miles    
Events Fog    
T = Trace of Precipitation, MM = Missing Value Source: NWS Daily Summary

Daily Weather History Graph

Daily Weather History Graph

Search for Another Location

Airport or City:

Trip Planner

Search our weather history database for the weather conditions in past years. The results will help you decide how hot, cold, wet, or windy it might be!

Date:

Astronomy

Sep. 17, 2013 Rise Set
Actual Time 7:10 AM EDT 7:32 PM EDT
Civil Twilight 6:43 AM EDT 7:59 PM EDT
Nautical Twilight 6:11 AM EDT 8:31 PM EDT
Astronomical Twilight 5:39 AM EDT 9:03 PM EDT
Moon 6:18 PM EDT (9/17) 5:03 AM EDT (9/17)
Length of Visible Light 13h 16m
Length of Day
12h 21m
Waxing Gibbous, 96% of the Moon is Illuminated
Sep 17
Waxing Gibbous
Sep 19
Full
Sep 26
Last Quarter
Oct 4
New
Oct 11
First Quarter

Hourly Weather History & Observations

Time (EDT) Temp. Dew Point Humidity Pressure Visibility Wind Dir Wind Speed Gust Speed Precip Events Conditions
12:53 AM 53.1 °F 48.0 °F 83% 30.32 in 10.0 mi Calm Calm - N/A   Clear
1:53 AM 50.0 °F 46.9 °F 89% 30.34 in 10.0 mi Calm Calm - N/A   Clear
2:53 AM 50.0 °F 46.9 °F 89% 30.34 in 10.0 mi Calm Calm - N/A   Clear
3:53 AM 48.9 °F 46.0 °F 90% 30.34 in 10.0 mi Calm Calm - N/A   Clear
4:53 AM 48.9 °F 46.0 °F 90% 30.35 in 10.0 mi NE 3.5 mph - N/A   Clear
5:53 AM 48.0 °F 46.0 °F 93% 30.35 in 7.0 mi Calm Calm - N/A   Clear
6:39 AM 48.2 °F 46.4 °F 93% 30.36 in 4.0 mi NNE 4.6 mph - N/A   Scattered Clouds
6:42 AM 48.2 °F 46.4 °F 93% 30.36 in 2.0 mi NNE 6.9 mph - N/A   Mostly Cloudy
6:45 AM 48.2 °F 46.4 °F 93% 30.36 in 1.2 mi NNE 5.8 mph - N/A   Mostly Cloudy
6:53 AM 48.0 °F 46.0 °F 93% 30.36 in 0.5 mi NNE 5.8 mph - N/A Fog Fog
7:53 AM 48.0 °F 46.9 °F 96% 30.37 in 0.2 mi NE 5.8 mph - N/A Fog Fog
8:34 AM 48.2 °F 46.4 °F 93% 30.37 in 1.5 mi ENE 4.6 mph - N/A   Overcast
8:42 AM 48.2 °F 46.4 °F 93% 30.37 in 2.0 mi NE 6.9 mph - N/A   Overcast
8:49 AM 48.2 °F 46.4 °F 93% 30.37 in 1.8 mi NE 6.9 mph - N/A   Overcast
8:53 AM 50.0 °F 46.9 °F 89% 30.38 in 1.8 mi NE 4.6 mph - N/A   Overcast
9:00 AM 50.0 °F 48.2 °F 94% 30.37 in 3.0 mi ENE 6.9 mph - N/A   Overcast
9:53 AM 51.1 °F 48.9 °F 92% 30.38 in 7.0 mi NE 4.6 mph - N/A   Overcast
10:53 AM 53.1 °F 48.9 °F 86% 30.38 in 9.0 mi ENE 6.9 mph - N/A   Overcast
11:24 AM 53.6 °F 48.2 °F 82% 30.38 in 9.0 mi Calm Calm - N/A   Overcast
11:53 AM 57.0 °F 51.1 °F 81% 30.37 in 10.0 mi SSE 3.5 mph - N/A   Overcast
12:00 PM 57.2 °F 51.8 °F 82% 30.37 in 10.0 mi Calm Calm - N/A   Overcast
12:22 PM 57.2 °F 51.8 °F 82% 30.36 in 10.0 mi SSE 3.5 mph - N/A   Scattered Clouds
12:53 PM 61.0 °F 52.0 °F 72% 30.35 in - Calm Calm - N/A   Unknown
1:53 PM 66.9 °F 52.0 °F 59% 30.33 in 10.0 mi Calm Calm - N/A   Clear
2:53 PM 69.1 °F 51.1 °F 53% 30.30 in 10.0 mi Calm Calm - N/A   Clear
3:53 PM 71.1 °F 50.0 °F 47% 30.27 in 10.0 mi Calm Calm - N/A   Clear
4:53 PM 72.0 °F 51.1 °F 48% 30.25 in 10.0 mi Variable 5.8 mph - N/A   Clear
5:53 PM 70.0 °F 50.0 °F 49% 30.25 in 10.0 mi ESE 3.5 mph - N/A   Clear
6:53 PM 69.1 °F 51.1 °F 53% 30.23 in 10.0 mi NE 3.5 mph - N/A   Clear
7:53 PM 63.0 °F 51.1 °F 65% 30.23 in 10.0 mi Calm Calm - N/A   Clear
8:53 PM 60.1 °F 52.0 °F 75% 30.23 in 10.0 mi Calm Calm - N/A   Clear
9:53 PM 57.0 °F 51.1 °F 81% 30.24 in 10.0 mi Calm Calm - N/A   Clear
10:53 PM 54.0 °F 51.1 °F 90% 30.24 in 10.0 mi Calm Calm - N/A   Clear
11:53 PM 53.1 °F 50.0 °F 89% 30.24 in 9.0 mi Calm Calm - N/A   Clear